^^
Station Historical Data
Daily Summary for February 10, 2017 Units:  Metric    English   Both
« Previous Day
Next Day »
Daily Weekly Monthly Yearly Custom
  High: Low: Average:
Temperature: -17.8 °C -23.8 °C -22.5 °C
Dew Point: -17.8 °C -24.6 °C -23.2 °C
Humidity: Humidity% 83% 90%
Wind Speed: 0km/h 0km/h 0.8km/h
Wind Gust: 0km/h - -
Wind- - ENE
Pressure: 0 hPa 35414.2 hPa -
Precipitation: 0 mm    
Historical Graphs
 
 
Tabular Data for February 10, 2017
Time Temperature Dew Point Pressure Wind Wind Speed Wind Gust Humidity Rainfall Rate (Hourly) solar Conditions
-17.8 °C -17.8 °C 0 hPa Calm     Humidity% 0 mm SoftwareType W/m2 Conditions
00:03 -23.2 °C -23.9 °C 35427.7 hPa ENE 2.6 km/h 9 km/h 90% 0 mm WeatherDisplay:10.37 W/m2 FEW
00:08 -23.2 °C -23.9 °C 35427.7 hPa Calm     90% 0 mm WeatherDisplay:10.37 W/m2 FEW
00:13 -23.2 °C -23.9 °C 35427.7 hPa Calm     90% 0 mm WeatherDisplay:10.37 W/m2 FEW
00:18 -23.2 °C -23.9 °C 35437.9 hPa ENE 4.3 km/h 9 km/h 90% 0 mm WeatherDisplay:10.37 W/m2 FEW
00:23 -23.1 °C -23.8 °C 35437.9 hPa Calm     90% 0 mm WeatherDisplay:10.37 W/m2 FEW
00:28 -23.1 °C -23.8 °C 35437.9 hPa ENE 1 km/h   90% 0 mm WeatherDisplay:10.37 W/m2 FEW
00:33 -23.1 °C -23.8 °C 35437.9 hPa ENE 1.6 km/h 6 km/h 90% 0 mm WeatherDisplay:10.37 W/m2 FEW
00:38 -23.2 °C -23.9 °C 35437.9 hPa Calm   2.6 km/h 90% 0 mm WeatherDisplay:10.37 W/m2 FEW
00:43 -23.2 °C -23.9 °C 35437.9 hPa ENE 3.9 km/h 6 km/h 90% 0 mm WeatherDisplay:10.37 W/m2 FEW
00:55 -23.2 °C -23.9 °C 35437.9 hPa ENE 2.9 km/h 6 km/h 90% 0 mm WeatherDisplay:10.37 W/m2 FEW
01:00 -23.1 °C -23.8 °C 35437.9 hPa ENE 1.8 km/h 6 km/h 90% 0 mm WeatherDisplay:10.37 W/m2 FEW
01:06 -23.1 °C -23.8 °C 35437.9 hPa ENE 4.7 km/h 9 km/h 90% 0 mm WeatherDisplay:10.37 W/m2 FEW
01:11 -23.1 °C -23.8 °C 35437.9 hPa ENE 2.6 km/h 6 km/h 90% 0 mm WeatherDisplay:10.37 W/m2 FEW
01:16 -23.1 °C -23.8 °C 35437.9 hPa Calm     90% 0 mm WeatherDisplay:10.37 W/m2 FEW
01:21 -23.1 °C -23.8 °C 35437.9 hPa ENE 6.9 km/h 9 km/h 90% 0 mm WeatherDisplay:10.37 W/m2 FEW
01:26 -23.1 °C -23.8 °C 35437.9 hPa Calm     90% 0 mm WeatherDisplay:10.37 W/m2 FEW
01:32 -23.1 °C -23.8 °C 35437.9 hPa ENE 4.2 km/h 9 km/h 90% 0 mm WeatherDisplay:10.37 W/m2 FEW
01:37 -23.1 °C -23.8 °C 35451.4 hPa Calm   6 km/h 90% 0 mm WeatherDisplay:10.37 W/m2 FEW
01:43 -23.1 °C -23.8 °C 35451.4 hPa ENE 5.6 km/h 6 km/h 90% 0 mm WeatherDisplay:10.37 W/m2 FEW
01:48 -23.2 °C -23.9 °C 35451.4 hPa ENE 0.8 km/h 6 km/h 90% 0 mm WeatherDisplay:10.37 W/m2 FEW
01:54 -23.1 °C -23.8 °C 35451.4 hPa Calm   6 km/h 90% 0 mm WeatherDisplay:10.37 W/m2 FEW
02:00 -23.1 °C -23.8 °C 35451.4 hPa ENE 3.9 km/h 9 km/h 90% 0 mm WeatherDisplay:10.37 W/m2 FEW
02:06 -23.1 °C -23.8 °C 35451.4 hPa ENE 0.3 km/h 6 km/h 90% 0 mm WeatherDisplay:10.37 W/m2 FEW
02:11 -23.1 °C -23.8 °C 35451.4 hPa ENE 0.8 km/h 6 km/h 90% 0 mm WeatherDisplay:10.37 W/m2 FEW
02:17 -23.1 °C -23.8 °C 35451.4 hPa Calm     90% 0 mm WeatherDisplay:10.37 W/m2 FEW
02:22 -23.1 °C -23.8 °C 35451.4 hPa ENE 1 km/h 6 km/h 90% 0 mm WeatherDisplay:10.37 W/m2 FEW
02:27 -23.1 °C -23.8 °C 35451.4 hPa Calm     90% 0 mm WeatherDisplay:10.37 W/m2 FEW
02:32 -23.1 °C -23.8 °C 35451.4 hPa NE 4.2 km/h 9 km/h 90% 0 mm WeatherDisplay:10.37 W/m2 FEW
02:37 -23.1 °C -23.8 °C 35451.4 hPa ENE 2.9 km/h 6 km/h 90% 0 mm WeatherDisplay:10.37 W/m2 FEW
02:42 -23.1 °C -23.8 °C 35451.4 hPa NE 1.6 km/h 9 km/h 90% 0 mm WeatherDisplay:10.37 W/m2 FEW
02:47 -23.1 °C -23.8 °C 35451.4 hPa Calm   6 km/h 90% 0 mm WeatherDisplay:10.37 W/m2 FEW
02:52 -23.1 °C -23.7 °C 35451.4 hPa ENE 4.3 km/h 6 km/h 91% 0 mm WeatherDisplay:10.37 W/m2 FEW
02:57 -23 °C -23.7 °C 35451.4 hPa ENE 0.8 km/h 6 km/h 91% 0 mm WeatherDisplay:10.37 W/m2 FEW
03:02 -23 °C -23.7 °C 35451.4 hPa Calm     91% 0 mm WeatherDisplay:10.37 W/m2 FEW
03:07 -23 °C -23.7 °C 35451.4 hPa Calm     91% 0 mm WeatherDisplay:10.37 W/m2 FEW
03:12 -23 °C -23.7 °C 35451.4 hPa Calm     91% 0 mm WeatherDisplay:10.37 W/m2 FEW
03:18 -23 °C -23.7 °C 35451.4 hPa Calm     91% 0 mm WeatherDisplay:10.37 W/m2 FEW
03:23 -22.9 °C -23.7 °C 35451.4 hPa Calm     91% 0 mm WeatherDisplay:10.37 W/m2 FEW
03:29 -22.9 °C -23.7 °C 35451.4 hPa ENE 0.3 km/h 6 km/h 90% 0 mm WeatherDisplay:10.37 W/m2 FEW
03:34 -22.9 °C -23.7 °C 35451.4 hPa Calm     90% 0 mm WeatherDisplay:10.37 W/m2 FEW
03:39 -22.9 °C -23.7 °C 35451.4 hPa ENE 1.6 km/h 6 km/h 90% 0 mm WeatherDisplay:10.37 W/m2 FEW
03:44 -22.9 °C -23.7 °C 35451.4 hPa ENE 3.9 km/h 9 km/h 90% 0 mm WeatherDisplay:10.37 W/m2 FEW
03:46 -22.9 °C -23.7 °C 35451.4 hPa Calm   3.1 km/h 90% 0 mm WeatherDisplay:10.37 W/m2 FEW
03:48 -22.9 °C -23.7 °C 35451.4 hPa Calm     90% 0 mm WeatherDisplay:10.37 W/m2 FEW
03:53 -22.9 °C -23.7 °C 35451.4 hPa Calm     90% 0 mm WeatherDisplay:10.37 W/m2 FEW
03:58 -22.9 °C -23.7 °C 35451.4 hPa Calm     90% 0 mm WeatherDisplay:10.37 W/m2 FEW
04:03 -22.9 °C -23.6 °C 35451.4 hPa ENE 0.8 km/h 6 km/h 90% 0 mm WeatherDisplay:10.37 W/m2 FEW
04:08 -22.9 °C -23.7 °C 35451.4 hPa ENE 0.8 km/h 2.6 km/h 90% 0 mm WeatherDisplay:10.37 W/m2 FEW
04:13 -22.9 °C -23.6 °C 35451.4 hPa Calm     90% 0 mm WeatherDisplay:10.37 W/m2 FEW
04:18 -22.9 °C -23.6 °C 35451.4 hPa ENE 1.8 km/h 6 km/h 90% 0 mm WeatherDisplay:10.37 W/m2 FEW
04:23 -22.9 °C -23.6 °C 35451.4 hPa Calm     90% 0 mm WeatherDisplay:10.37 W/m2 FEW
04:28 -22.9 °C -23.6 °C 35451.4 hPa Calm     90% 0 mm WeatherDisplay:10.37 W/m2 FEW
04:30 -22.9 °C -23.6 °C 35451.4 hPa ENE 1 km/h 6 km/h 90% 0 mm WeatherDisplay:10.37 W/m2 FEW
04:35 -22.9 °C -23.6 °C 35451.4 hPa Calm     90% 0 mm WeatherDisplay:10.37 W/m2 FEW
04:39 -22.9 °C -23.6 °C 35451.4 hPa Calm     90% 0 mm WeatherDisplay:10.37 W/m2 FEW
04:40 -22.9 °C -23.6 °C 35451.4 hPa Calm     90% 0 mm WeatherDisplay:10.37 W/m2 FEW
04:45 -22.9 °C -23.6 °C 35451.4 hPa Calm   3.1 km/h 90% 0 mm WeatherDisplay:10.37 W/m2 FEW
04:50 -22.9 °C -23.6 °C 35451.4 hPa Calm     90% 0 mm WeatherDisplay:10.37 W/m2 FEW
04:55 -22.9 °C -23.6 °C 35451.4 hPa ENE 0.3 km/h 6 km/h 90% 0 mm WeatherDisplay:10.37 W/m2 FEW
05:00 -22.9 °C -23.6 °C 35451.4 hPa ENE 4.3 km/h 6 km/h 90% 0 mm WeatherDisplay:10.37 W/m2 FEW
05:05 -22.8 °C -23.6 °C 35437.9 hPa ENE 1.3 km/h 9 km/h 90% 0 mm WeatherDisplay:10.37 W/m2 FEW
05:10 -22.8 °C -23.6 °C 35437.9 hPa Calm     90% 0 mm WeatherDisplay:10.37 W/m2 FEW
05:15 -22.8 °C -23.6 °C 35437.9 hPa ENE 0.3 km/h 5.1 km/h 90% 0 mm WeatherDisplay:10.37 W/m2 FEW
05:20 -22.8 °C -23.6 °C 35437.9 hPa Calm     90% 0 mm WeatherDisplay:10.37 W/m2 FEW
05:25 -22.8 °C -23.6 °C 35437.9 hPa Calm     90% 0 mm WeatherDisplay:10.37 W/m2 FEW
05:30 -22.8 °C -23.5 °C 35437.9 hPa ENE 3.7 km/h 6 km/h 90% 0 mm WeatherDisplay:10.37 W/m2 FEW
05:35 -22.8 °C -23.5 °C 35437.9 hPa Calm   6 km/h 90% 0 mm WeatherDisplay:10.37 W/m2 FEW
05:40 -22.7 °C -23.5 °C 35437.9 hPa ENE 1 km/h 6 km/h 90% 0 mm WeatherDisplay:10.37 W/m2 FEW
05:45 -22.7 °C -23.5 °C 35437.9 hPa Calm     90% 0 mm WeatherDisplay:10.37 W/m2 FEW
05:50 -22.7 °C -23.5 °C 35437.9 hPa Calm   6 km/h 90% 0 mm WeatherDisplay:10.37 W/m2 FEW
05:55 -22.7 °C -23.5 °C 35437.9 hPa NE 2.3 km/h 9 km/h 90% 0 mm WeatherDisplay:10.37 W/m2 FEW
06:00 -22.7 °C -23.5 °C 35437.9 hPa NE 4.7 km/h 9 km/h 90% 0 mm WeatherDisplay:10.37 W/m2 FEW
06:05 -22.7 °C -23.5 °C 35437.9 hPa ENE 2.1 km/h 9 km/h 90% 0 mm WeatherDisplay:10.37 W/m2 FEW
06:08 -22.7 °C -23.5 °C 35437.9 hPa NE 6.3 km/h 11.9 km/h 90% 0 mm WeatherDisplay:10.37 W/m2 FEW
06:13 -22.7 °C -23.5 °C 35437.9 hPa Calm   3.1 km/h 90% 0 mm WeatherDisplay:10.37 W/m2 FEW
06:18 -22.7 °C -23.5 °C 35437.9 hPa ENE 4.7 km/h 9 km/h 90% 0 mm WeatherDisplay:10.37 W/m2 FEW
06:23 -22.7 °C -23.4 °C 35437.9 hPa ENE 2.3 km/h 7.7 km/h 91% 0 mm WeatherDisplay:10.37 W/m2 FEW
06:28 -22.7 °C -23.4 °C 35437.9 hPa Calm     91% 0 mm WeatherDisplay:10.37 W/m2 FEW
06:33 -22.7 °C -23.4 °C 35437.9 hPa ENE 3.7 km/h 9 km/h 91% 0 mm WeatherDisplay:10.37 W/m2 FEW
06:38 -22.7 °C -23.4 °C 35437.9 hPa ENE 3.1 km/h 9 km/h 91% 0 mm WeatherDisplay:10.37 W/m2 FEW
06:43 -22.7 °C -23.4 °C 35437.9 hPa ENE 0.3 km/h 6 km/h 91% 0 mm WeatherDisplay:10.37 W/m2 FEW
06:48 -22.7 °C -23.4 °C 35437.9 hPa ENE 0.5 km/h 5.1 km/h 91% 0 mm WeatherDisplay:10.37 W/m2 FEW
06:53 -22.7 °C -23.4 °C 35451.4 hPa Calm     91% 0 mm WeatherDisplay:10.37 W/m2 FEW
06:58 -22.7 °C -23.4 °C 35451.4 hPa Calm     91% 0 mm WeatherDisplay:10.37 W/m2 FEW
07:03 -22.7 °C -23.3 °C 35451.4 hPa Calm     91% 0 mm WeatherDisplay:10.37 W/m2 FEW
07:08 -22.7 °C -23.3 °C 35451.4 hPa ENE 4.2 km/h 9 km/h 91% 0 mm WeatherDisplay:10.37 W/m2 FEW
07:13 -22.6 °C -23.3 °C 35451.4 hPa Calm     91% 0 mm WeatherDisplay:10.37 W/m2 FEW
07:18 -22.6 °C -23.3 °C 35451.4 hPa Calm     91% 0 mm WeatherDisplay:10.37 W/m2 FEW
07:23 -22.6 °C -23.3 °C 35451.4 hPa ENE 2.3 km/h 6 km/h 91% 0 mm WeatherDisplay:10.37 W/m2 FEW
07:28 -22.6 °C -23.3 °C 35451.4 hPa Calm   6 km/h 91% 0 mm WeatherDisplay:10.37 W/m2 FEW
07:33 -22.6 °C -23.3 °C 35451.4 hPa Calm     91% 0 mm WeatherDisplay:10.37 W/m2 FEW
07:38 -22.6 °C -23.3 °C 35451.4 hPa Calm     91% 0 mm WeatherDisplay:10.37 W/m2 FEW
07:43 -22.6 °C -23.3 °C 35451.4 hPa Calm     91% 0 mm WeatherDisplay:10.37 W/m2 FEW
07:48 -22.6 °C -23.3 °C 35451.4 hPa ENE 2.9 km/h 6 km/h 91% 0 mm WeatherDisplay:10.37 W/m2 FEW
07:53 -22.6 °C -23.3 °C 35451.4 hPa Calm     91% 0 mm WeatherDisplay:10.37 W/m2 FEW
07:58 -22.6 °C -23.3 °C 35451.4 hPa ENE 2.3 km/h 5.1 km/h 91% 0 mm WeatherDisplay:10.37 W/m2 FEW
08:03 -22.6 °C -23.3 °C 35451.4 hPa Calm     91% 0 mm WeatherDisplay:10.37 W/m2 FEW
08:08 -22.6 °C -23.3 °C 35451.4 hPa Calm     91% 0 mm WeatherDisplay:10.37 W/m2 FEW
08:13 -22.6 °C -23.3 °C 35451.4 hPa ENE 1 km/h 5.1 km/h 91% 0 mm WeatherDisplay:10.37 W/m2 FEW
08:18 -22.6 °C -23.3 °C 35451.4 hPa ENE 0.3 km/h 9 km/h 91% 0 mm WeatherDisplay:10.37 W/m2 FEW
08:23 -22.6 °C -23.3 °C 35451.4 hPa ENE 1.8 km/h 9 km/h 91% 0 mm WeatherDisplay:10.37 W/m2 FEW
08:28 -22.6 °C -23.3 °C 35451.4 hPa ENE 1.3 km/h 5.1 km/h 91% 0 mm WeatherDisplay:10.37 W/m2 FEW
08:33 -22.6 °C -23.2 °C 35451.4 hPa Calm     92% 0 mm WeatherDisplay:10.37 W/m2 FEW
08:38 -22.6 °C -23.2 °C 35451.4 hPa Calm   3.1 km/h 92% 0 mm WeatherDisplay:10.37 W/m2 FEW
08:43 -22.6 °C -23.2 °C 35451.4 hPa Calm     92% 0 mm WeatherDisplay:10.37 W/m2 FEW
08:48 -22.6 °C -23.2 °C 35451.4 hPa Calm     92% 0 mm WeatherDisplay:10.37 W/m2 FEW
08:53 -22.6 °C -23.2 °C 35451.4 hPa Calm     92% 0 mm WeatherDisplay:10.37 W/m2 FEW
08:58 -22.6 °C -23.2 °C 35451.4 hPa Calm     92% 0 mm WeatherDisplay:10.37 W/m2 FEW
09:03 -22.6 °C -23.2 °C 35451.4 hPa ENE 1.6 km/h 6 km/h 92% 0 mm WeatherDisplay:10.37 W/m2 FEW
09:08 -22.6 °C -23.2 °C 35451.4 hPa ENE 1.6 km/h 2.6 km/h 92% 0 mm WeatherDisplay:10.37 W/m2 FEW
09:13 -22.6 °C -23.2 °C 35451.4 hPa Calm     92% 0 mm WeatherDisplay:10.37 W/m2 FEW
09:18 -22.6 °C -23.2 °C 35451.4 hPa ENE 4.7 km/h 9 km/h 92% 0 mm WeatherDisplay:10.37 W/m2 FEW
09:23 -22.6 °C -23.2 °C 35451.4 hPa Calm     92% 0 mm WeatherDisplay:10.37 W/m2 FEW
09:28 -22.6 °C -23.2 °C 35451.4 hPa Calm   6 km/h 92% 0 mm WeatherDisplay:10.37 W/m2 FEW
09:33 -22.6 °C -23.2 °C 35451.4 hPa ENE 6.9 km/h 10.3 km/h 92% 0 mm WeatherDisplay:10.37 W/m2 FEW
09:38 -22.7 °C -23.2 °C 35451.4 hPa ENE 3.7 km/h 9 km/h 92% 0 mm WeatherDisplay:10.37 W/m2 FEW
09:43 -22.7 °C -23.2 °C 35451.4 hPa ENE 4.2 km/h 9 km/h 92% 0 mm WeatherDisplay:10.37 W/m2 FEW
09:48 -22.6 °C -23.2 °C 35451.4 hPa NE 5 km/h 11.9 km/h 92% 0 mm WeatherDisplay:10.37 W/m2 FEW
09:53 -22.7 °C -23.2 °C 35451.4 hPa ENE 6 km/h 9 km/h 92% 0 mm WeatherDisplay:10.37 W/m2 FEW
09:58 -22.7 °C -23.2 °C 35451.4 hPa ENE 6.8 km/h 11.9 km/h 92% 0 mm WeatherDisplay:10.37 W/m2 FEW
10:03 -22.7 °C -23.3 °C 35451.4 hPa ENE 6 km/h 9 km/h 92% 0 mm WeatherDisplay:10.37 W/m2 FEW
10:08 -22.7 °C -23.3 °C 35451.4 hPa NE 5.1 km/h 9 km/h 92% 0 mm WeatherDisplay:10.37 W/m2 FEW
10:13 -22.7 °C -23.3 °C 35451.4 hPa Calm     92% 0 mm WeatherDisplay:10.37 W/m2 FEW
10:18 -22.7 °C -23.2 °C 35451.4 hPa ENE 7.7 km/h 11.9 km/h 92% 0 mm WeatherDisplay:10.37 W/m2 FEW
10:23 -22.7 °C -23.2 °C 35451.4 hPa ENE 0.5 km/h 6 km/h 92% 0 mm WeatherDisplay:10.37 W/m2 FEW
10:28 -22.6 °C -23.2 °C 35451.4 hPa ENE 4.3 km/h 9 km/h 92% 0 mm WeatherDisplay:10.37 W/m2 FEW
10:33 -22.6 °C -23.2 °C 35451.4 hPa Calm   6 km/h 92% 0 mm WeatherDisplay:10.37 W/m2 FEW
10:38 -22.6 °C -23.2 °C 35451.4 hPa ENE 6.3 km/h 9 km/h 92% 0 mm WeatherDisplay:10.37 W/m2 FEW
10:43 -22.6 °C -23.2 °C 35451.4 hPa ENE 5 km/h 9 km/h 92% 0 mm WeatherDisplay:10.37 W/m2 FEW
10:48 -22.6 °C -23.1 °C 35451.4 hPa NNE 4.7 km/h 9 km/h 92% 0 mm WeatherDisplay:10.37 W/m2 FEW
10:53 -22.5 °C -23.2 °C 35451.4 hPa Calm     91% 0 mm WeatherDisplay:10.37 W/m2 FEW
10:58 -22.4 °C -23.1 °C 35451.4 hPa NNE 1.8 km/h 6 km/h 92% 0 mm WeatherDisplay:10.37 W/m2 FEW
11:03 -22.4 °C -23 °C 35451.4 hPa Calm     92% 0 mm WeatherDisplay:10.37 W/m2 FEW
11:08 -22.4 °C -23 °C 35451.4 hPa Calm     92% 0 mm WeatherDisplay:10.37 W/m2 FEW
11:13 -22.4 °C -23.1 °C 35451.4 hPa Calm     91% 0 mm WeatherDisplay:10.37 W/m2 FEW
11:18 -22.4 °C -23.1 °C 35451.4 hPa Calm     91% 0 mm WeatherDisplay:10.37 W/m2 FEW
11:23 -22.3 °C -23 °C 35451.4 hPa Calm   3.1 km/h 91% 0 mm WeatherDisplay:10.37 W/m2 FEW
11:28 -22.3 °C -22.9 °C 35451.4 hPa NNE 0.5 km/h 5.1 km/h 91% 0 mm WeatherDisplay:10.37 W/m2 FEW
11:33 -22.3 °C -22.8 °C 35451.4 hPa NNE 0.5 km/h 5.1 km/h 92% 0 mm WeatherDisplay:10.37 W/m2 FEW
11:38 -22.2 °C -22.8 °C 35451.4 hPa NE 4.2 km/h 9 km/h 92% 0 mm WeatherDisplay:10.37 W/m2 FEW
11:43 -22.2 °C -22.8 °C 35451.4 hPa NE 0.8 km/h 5.1 km/h 92% 0 mm WeatherDisplay:10.37 W/m2 FEW
11:48 -22.2 °C -22.7 °C 35451.4 hPa Calm     92% 0 mm WeatherDisplay:10.37 W/m2 FEW
11:53 -22.2 °C -22.8 °C 35451.4 hPa NE 3.7 km/h 9 km/h 92% 0 mm WeatherDisplay:10.37 W/m2 FEW
11:58 -22.2 °C -22.8 °C 35451.4 hPa NE 2.3 km/h 6 km/h 92% 0 mm WeatherDisplay:10.37 W/m2 FEW
12:03 -22.2 °C -22.8 °C 35451.4 hPa Calm     92% 0 mm WeatherDisplay:10.37 W/m2 FEW
12:08 -22.2 °C -22.9 °C 35461.6 hPa Calm     91% 0 mm WeatherDisplay:10.37 W/m2 FEW
12:13 -22.1 °C -22.7 °C 35451.4 hPa Calm     92% 0 mm WeatherDisplay:10.37 W/m2 FEW
12:18 -22.1 °C -22.6 °C 35451.4 hPa Calm     92% 0 mm WeatherDisplay:10.37 W/m2 FEW
12:23 -22 °C -22.7 °C 35451.4 hPa Calm     91% 0 mm WeatherDisplay:10.37 W/m2 FEW
12:28 -22 °C -22.7 °C 35451.4 hPa Calm     91% 0 mm WeatherDisplay:10.37 W/m2 FEW
12:33 -21.9 °C -22.6 °C 35451.4 hPa Calm   6 km/h 91% 0 mm WeatherDisplay:10.37 W/m2 FEW
12:38 -21.9 °C -22.6 °C 35451.4 hPa Calm     90% 0 mm WeatherDisplay:10.37 W/m2 FEW
12:43 -21.8 °C -22.6 °C 35451.4 hPa Calm     90% 0 mm WeatherDisplay:10.37 W/m2 FEW
12:48 -21.9 °C -22.6 °C 35451.4 hPa Calm     90% 0 mm WeatherDisplay:10.37 W/m2 FEW
12:53 -21.9 °C -22.6 °C 35451.4 hPa Calm     90% 0 mm WeatherDisplay:10.37 W/m2 FEW
12:58 -21.9 °C -22.6 °C 35451.4 hPa Calm     90% 0 mm WeatherDisplay:10.37 W/m2 FEW
13:03 -21.8 °C -22.6 °C 35451.4 hPa Calm     90% 0 mm WeatherDisplay:10.37 W/m2 FEW
13:08 -21.8 °C -22.6 °C 35451.4 hPa Calm     89% 0 mm WeatherDisplay:10.37 W/m2 FEW
13:13 -21.6 °C -22.4 °C 35451.4 hPa NE 0.3 km/h   89% 0 mm WeatherDisplay:10.37 W/m2 FEW
13:18 -21.6 °C -22.5 °C 35451.4 hPa NE 4.3 km/h 9 km/h 88% 0 mm WeatherDisplay:10.37 W/m2 FEW
13:23 -21.5 °C -22.6 °C 35451.4 hPa Calm     86% 0 mm WeatherDisplay:10.37 W/m2 FEW
13:28 -21.5 °C -22.6 °C 35451.4 hPa Calm     86% 0 mm WeatherDisplay:10.37 W/m2 FEW
13:33 -21.4 °C -22.6 °C 35451.4 hPa NE 5 km/h 9 km/h 86% 0 mm WeatherDisplay:10.37 W/m2 FEW
13:38 -21.4 °C -22.6 °C 35437.9 hPa SE 0.8 km/h 5.1 km/h 85% 0 mm WeatherDisplay:10.37 W/m2 FEW
13:43 -21.4 °C -22.6 °C 35451.4 hPa Calm     85% 0 mm WeatherDisplay:10.37 W/m2 FEW
13:48 -21.3 °C -22.6 °C 35451.4 hPa ESE 1 km/h 11.9 km/h 85% 0 mm WeatherDisplay:10.37 W/m2 FEW
13:53 -21.3 °C -22.6 °C 35437.9 hPa Calm     84% 0 mm WeatherDisplay:10.37 W/m2 FEW
13:58 -21.3 °C -22.6 °C 35437.9 hPa ESE 6 km/h 9 km/h 84% 0 mm WeatherDisplay:10.37 W/m2 FEW
14:03 -21.2 °C -22.5 °C 35437.9 hPa Calm     84% 0 mm WeatherDisplay:10.37 W/m2 FEW
14:08 -21.2 °C -22.4 °C 35437.9 hPa East 3.1 km/h 9 km/h 84% 0 mm WeatherDisplay:10.37 W/m2 FEW
14:13 -21.2 °C -22.4 °C 35437.9 hPa Calm     84% 0 mm WeatherDisplay:10.37 W/m2 FEW
14:18 -21.1 °C -22.4 °C 35437.9 hPa Calm     83% 0 mm WeatherDisplay:10.37 W/m2 FEW
14:23 -21.1 °C -22.4 °C 35437.9 hPa Calm     83% 0 mm WeatherDisplay:10.37 W/m2 FEW
14:28 -21.1 °C -22.4 °C 35437.9 hPa Calm   3.1 km/h 83% 0 mm WeatherDisplay:10.37 W/m2 FEW
14:33 -21.1 °C -22.4 °C 35437.9 hPa Calm     83% 0 mm WeatherDisplay:10.37 W/m2 FEW
14:38 -21.1 °C -22.4 °C 35437.9 hPa Calm     83% 0 mm WeatherDisplay:10.37 W/m2 FEW
14:43 -21.1 °C -22.4 °C 35437.9 hPa Calm     83% 0 mm WeatherDisplay:10.37 W/m2 FEW
14:48 -21.1 °C -22.4 °C 35437.9 hPa Calm     83% 0 mm WeatherDisplay:10.37 W/m2 FEW
14:53 -21.1 °C -22.4 °C 35437.9 hPa Calm     83% 0 mm WeatherDisplay:10.37 W/m2 FEW
14:58 -21.1 °C -22.4 °C 35437.9 hPa Calm     83% 0 mm WeatherDisplay:10.37 W/m2 FEW
15:03 -21.2 °C -22.5 °C 35437.9 hPa Calm     83% 0 mm WeatherDisplay:10.37 W/m2 FEW
15:08 -21.2 °C -22.5 °C 35437.9 hPa Calm     83% 0 mm WeatherDisplay:10.37 W/m2 FEW
15:13 -21.2 °C -22.6 °C 35437.9 hPa Calm     83% 0 mm WeatherDisplay:10.37 W/m2 FEW
15:18 -21.3 °C -22.6 °C 35437.9 hPa Calm     83% 0 mm WeatherDisplay:10.37 W/m2 FEW
15:23 -21.3 °C -22.6 °C 35437.9 hPa Calm     84% 0 mm WeatherDisplay:10.37 W/m2 FEW
15:28 -21.4 °C -22.7 °C 35437.9 hPa Calm     84% 0 mm WeatherDisplay:10.37 W/m2 FEW
15:33 -21.4 °C -22.6 °C 35437.9 hPa Calm     85% 0 mm WeatherDisplay:10.37 W/m2 FEW
15:38 -21.5 °C -22.7 °C 35437.9 hPa Calm     85% 0 mm WeatherDisplay:10.37 W/m2 FEW
15:43 -21.6 °C -22.6 °C 35437.9 hPa Calm     86% 0 mm WeatherDisplay:10.37 W/m2 FEW
15:48 -21.6 °C -22.7 °C 35437.9 hPa Calm     86% 0 mm WeatherDisplay:10.37 W/m2 FEW
15:53 -21.7 °C -22.7 °C 35437.9 hPa Calm     87% 0 mm WeatherDisplay:10.37 W/m2 FEW
15:58 -21.7 °C -22.7 °C 35437.9 hPa Calm     87% 0 mm WeatherDisplay:10.37 W/m2 FEW
16:03 -21.7 °C -22.7 °C 35437.9 hPa ESE 1.6 km/h 9 km/h 87% 0 mm WeatherDisplay:10.37 W/m2 FEW
16:08 -21.8 °C -22.7 °C 35437.9 hPa Calm     88% 0 mm WeatherDisplay:10.37 W/m2 FEW
16:13 -21.8 °C -22.7 °C 35437.9 hPa Calm     88% 0 mm WeatherDisplay:10.37 W/m2 FEW
16:18 -21.8 °C -22.8 °C 35437.9 hPa Calm     88% 0 mm WeatherDisplay:10.37 W/m2 FEW
16:23 -21.9 °C -22.8 °C 35437.9 hPa Calm     88% 0 mm WeatherDisplay:10.37 W/m2 FEW
16:28 -21.9 °C -22.9 °C 35437.9 hPa Calm     88% 0 mm WeatherDisplay:10.37 W/m2 FEW
16:33 -22 °C -22.9 °C 35437.9 hPa Calm     88% 0 mm WeatherDisplay:10.37 W/m2 FEW
16:38 -22.1 °C -23 °C 35437.9 hPa Calm     88% 0 mm WeatherDisplay:10.37 W/m2 FEW
16:43 -22.1 °C -23.1 °C 35437.9 hPa Calm     88% 0 mm WeatherDisplay:10.37 W/m2 FEW
16:48 -22.2 °C -23.1 °C 35451.4 hPa Calm     88% 0 mm WeatherDisplay:10.37 W/m2 FEW
16:53 -22.3 °C -23.2 °C 35451.4 hPa Calm     88% 0 mm WeatherDisplay:10.37 W/m2 FEW
16:58 -22.3 °C -23.2 °C 35451.4 hPa Calm     88% 0 mm WeatherDisplay:10.37 W/m2 FEW
17:03 -22.4 °C -23.3 °C 35437.9 hPa Calm     89% 0 mm WeatherDisplay:10.37 W/m2 FEW
17:08 -22.5 °C -23.3 °C 35437.9 hPa Calm     89% 0 mm WeatherDisplay:10.37 W/m2 FEW
17:13 -22.6 °C -23.4 °C 35437.9 hPa Calm     89% 0 mm WeatherDisplay:10.37 W/m2 FEW
17:18 -22.7 °C -23.5 °C 35437.9 hPa Calm     89% 0 mm WeatherDisplay:10.37 W/m2 FEW
17:23 -22.7 °C -23.6 °C 35437.9 hPa Calm     89% 0 mm WeatherDisplay:10.37 W/m2 FEW
17:28 -22.8 °C -23.7 °C 35437.9 hPa Calm     89% 0 mm WeatherDisplay:10.37 W/m2 FEW
17:33 -22.9 °C -23.7 °C 35437.9 hPa Calm     89% 0 mm WeatherDisplay:10.37 W/m2 FEW
17:38 -22.9 °C -23.8 °C 35437.9 hPa Calm     89% 0 mm WeatherDisplay:10.37 W/m2 FEW
17:43 -23 °C -23.8 °C 35437.9 hPa Calm     89% 0 mm WeatherDisplay:10.37 W/m2 FEW
17:48 -23 °C -23.8 °C 35437.9 hPa Calm     89% 0 mm WeatherDisplay:10.37 W/m2 FEW
17:53 -23.1 °C -23.8 °C 35437.9 hPa Calm     90% 0 mm WeatherDisplay:10.37 W/m2 FEW
17:58 -23.2 °C -24 °C 35437.9 hPa Calm     89% 0 mm WeatherDisplay:10.37 W/m2 FEW
17:59 -23.2 °C -24 °C 35437.9 hPa Calm     89% 0 mm WeatherDisplay:10.37 W/m2 FEW
18:04 -23.2 °C -24 °C 35437.9 hPa Calm     89% 0 mm WeatherDisplay:10.37 W/m2 FEW
18:09 -23.3 °C -24.1 °C 35437.9 hPa Calm     90% 0 mm WeatherDisplay:10.37 W/m2 FEW
18:14 -23.3 °C -24.1 °C 35437.9 hPa Calm     89% 0 mm WeatherDisplay:10.37 W/m2 FEW
18:19 -23.4 °C -24.1 °C 35437.9 hPa Calm     90% 0 mm WeatherDisplay:10.37 W/m2 FEW
18:24 -23.4 °C -24.1 °C 35437.9 hPa Calm     90% 0 mm WeatherDisplay:10.37 W/m2 FEW
18:29 -23.4 °C -24.1 °C 35437.9 hPa Calm     90% 0 mm WeatherDisplay:10.37 W/m2 FEW
18:34 -23.4 °C -24.1 °C 35437.9 hPa Calm     90% 0 mm WeatherDisplay:10.37 W/m2 FEW
18:39 -23.4 °C -24.1 °C 35437.9 hPa Calm     90% 0 mm WeatherDisplay:10.37 W/m2 FEW
18:44 -23.4 °C -24.1 °C 35427.7 hPa Calm     90% 0 mm WeatherDisplay:10.37 W/m2 FEW
18:49 -23.4 °C -24.1 °C 35427.7 hPa Calm     91% 0 mm WeatherDisplay:10.37 W/m2 FEW
18:54 -23.4 °C -24.2 °C 35427.7 hPa Calm     90% 0 mm WeatherDisplay:10.37 W/m2 FEW
18:59 -23.6 °C -24.3 °C 35427.7 hPa Calm     90% 0 mm WeatherDisplay:10.37 W/m2 FEW
19:02 -23.6 °C -24.3 °C 35427.7 hPa Calm     90% 0 mm WeatherDisplay:10.37 W/m2 FEW
19:07 -23.7 °C -24.4 °C 35427.7 hPa Calm     90% 0 mm WeatherDisplay:10.37 W/m2 FEW
19:12 -23.7 °C -24.5 °C 35427.7 hPa Calm     90% 0 mm WeatherDisplay:10.37 W/m2 FEW
19:17 -23.8 °C -24.6 °C 35427.7 hPa Calm     90% 0 mm WeatherDisplay:10.37 W/m2 FEW
19:20 -23.8 °C -24.6 °C 35427.7 hPa Calm     90% 0 mm WeatherDisplay:10.37 W/m2 FEW
19:23 -23.8 °C -24.6 °C 35427.7 hPa Calm     90% 0 mm WeatherDisplay:10.37 W/m2 FEW
19:25 -23.8 °C -24.6 °C 35427.7 hPa Calm     90% 0 mm WeatherDisplay:10.37 W/m2 FEW
19:29 -23.8 °C -24.6 °C 35427.7 hPa Calm     90% 0 mm WeatherDisplay:10.37 W/m2 FEW
19:30 -23.8 °C -24.6 °C 35427.7 hPa Calm     90% 0 mm WeatherDisplay:10.37 W/m2 FEW
19:35 -23.8 °C -24.4 °C 35427.7 hPa Calm     91% 0 mm WeatherDisplay:10.37 W/m2 FEW
19:40 -23.7 °C -24.3 °C 35427.7 hPa Calm     91% 0 mm WeatherDisplay:10.37 W/m2 FEW
19:42 -23.7 °C -24.3 °C 35414.2 hPa Calm     91% 0 mm WeatherDisplay:10.37 W/m2 FEW
19:47 -23.6 °C -24.2 °C 35414.2 hPa Calm     91% 0 mm WeatherDisplay:10.37 W/m2 FEW
19:52 -23.4 °C -24.1 °C 35414.2 hPa Calm     91% 0 mm WeatherDisplay:10.37 W/m2 FEW
19:57 -23.4 °C -24.1 °C 35427.7 hPa Calm     91% 0 mm WeatherDisplay:10.37 W/m2 FEW
20:02 -23.3 °C -23.9 °C 35414.2 hPa Calm     91% 0 mm WeatherDisplay:10.37 W/m2 FEW
20:07 -23.2 °C -23.9 °C 35414.2 hPa Calm     91% 0 mm WeatherDisplay:10.37 W/m2 FEW
20:12 -23.2 °C -23.8 °C 35414.2 hPa Calm     91% 0 mm WeatherDisplay:10.37 W/m2 FEW
20:17 -23.1 °C -23.7 °C 35414.2 hPa Calm     92% 0 mm WeatherDisplay:10.37 W/m2 FEW
20:22 -23 °C -23.6 °C 35414.2 hPa Calm     92% 0 mm WeatherDisplay:10.37 W/m2 FEW
20:27 -22.9 °C -23.5 °C 35414.2 hPa Calm     92% 0 mm WeatherDisplay:10.37 W/m2 FEW
20:32 -22.8 °C -23.4 °C 35414.2 hPa Calm     92% 0 mm WeatherDisplay:10.37 W/m2 FEW
20:37 -22.7 °C -23.3 °C 35414.2 hPa Calm     92% 0 mm WeatherDisplay:10.37 W/m2 FEW
20:38 -22.7 °C -23.3 °C 35414.2 hPa Calm     92% 0 mm WeatherDisplay:10.37 W/m2 FEW
20:43 -22.6 °C -23.2 °C 35414.2 hPa Calm     92% 0 mm WeatherDisplay:10.37 W/m2 FEW
20:48 -22.6 °C -23.1 °C 35414.2 hPa Calm     92% 0 mm WeatherDisplay:10.37 W/m2 FEW
20:53 -22.4 °C -23 °C 35414.2 hPa Calm     92% 0 mm WeatherDisplay:10.37 W/m2 FEW
20:58 -22.4 °C -22.9 °C 35414.2 hPa Calm     92% 0 mm WeatherDisplay:10.37 W/m2 FEW
21:03 -22.3 °C -22.9 °C 35414.2 hPa Calm     92% 0 mm WeatherDisplay:10.37 W/m2 FEW
21:08 -22.3 °C -22.9 °C 35414.2 hPa Calm     92% 0 mm WeatherDisplay:10.37 W/m2 FEW
21:13 -22.2 °C -22.8 °C 35414.2 hPa Calm     92% 0 mm WeatherDisplay:10.37 W/m2 FEW
21:18 -22.2 °C -22.8 °C 35414.2 hPa Calm     92% 0 mm WeatherDisplay:10.37 W/m2 FEW
21:23 -22.1 °C -22.7 °C 35414.2 hPa Calm     92% 0 mm WeatherDisplay:10.37 W/m2 FEW
21:28 -22.1 °C -22.7 °C 35414.2 hPa Calm     92% 0 mm WeatherDisplay:10.37 W/m2 FEW
21:33 -22.1 °C -22.6 °C 35414.2 hPa Calm     92% 0 mm WeatherDisplay:10.37 W/m2 FEW
21:38 -22 °C -22.6 °C 35414.2 hPa Calm     92% 0 mm WeatherDisplay:10.37 W/m2 FEW
21:43 -22 °C -22.6 °C 35414.2 hPa Calm     92% 0 mm WeatherDisplay:10.37 W/m2 FEW
21:48 -21.9 °C -22.6 °C 35414.2 hPa Calm     92% 0 mm WeatherDisplay:10.37 W/m2 FEW
21:53 -21.9 °C -22.5 °C 35414.2 hPa Calm     92% 0 mm WeatherDisplay:10.37 W/m2 FEW
21:58 -21.8 °C -22.4 °C 35414.2 hPa Calm     92% 0 mm WeatherDisplay:10.37 W/m2 FEW
22:03 -21.8 °C -22.4 °C 35414.2 hPa Calm     92% 0 mm WeatherDisplay:10.37 W/m2 FEW
22:08 -21.8 °C -22.4 °C 35414.2 hPa Calm     92% 0 mm WeatherDisplay:10.37 W/m2 FEW
22:13 -21.8 °C -22.3 °C 35414.2 hPa Calm     92% 0 mm WeatherDisplay:10.37 W/m2 FEW
22:18 -21.7 °C -22.3 °C 35414.2 hPa Calm     92% 0 mm WeatherDisplay:10.37 W/m2 FEW
22:23 -21.7 °C -22.3 °C 35414.2 hPa Calm     92% 0 mm WeatherDisplay:10.37 W/m2 FEW
22:28 -21.7 °C -22.3 °C 35414.2 hPa Calm     92% 0 mm WeatherDisplay:10.37 W/m2 FEW
22:33 -21.7 °C -22.3 °C 35414.2 hPa Calm     92% 0 mm WeatherDisplay:10.37 W/m2 FEW
22:38 -21.7 °C -22.3 °C 35414.2 hPa Calm     92% 0 mm WeatherDisplay:10.37 W/m2 FEW
22:43 -21.6 °C -22.2 °C 35414.2 hPa Calm     92% 0 mm WeatherDisplay:10.37 W/m2 FEW
22:48 -21.6 °C -22.2 °C 35414.2 hPa Calm     92% 0 mm WeatherDisplay:10.37 W/m2 FEW
22:53 -21.6 °C -22.2 °C 35414.2 hPa Calm     92% 0 mm WeatherDisplay:10.37 W/m2 FEW
22:58 -21.6 °C -22.2 °C 35414.2 hPa Calm     92% 0 mm WeatherDisplay:10.37 W/m2 FEW
23:03 -21.6 °C -22.2 °C 35414.2 hPa Calm     92% 0 mm WeatherDisplay:10.37 W/m2 FEW
23:08 -21.6 °C -22.1 °C 35414.2 hPa Calm     92% 0 mm WeatherDisplay:10.37 W/m2 FEW
23:13 -21.6 °C -22.1 °C 35414.2 hPa Calm     92% 0 mm WeatherDisplay:10.37 W/m2 FEW
23:18 -21.6 °C -22.1 °C 35414.2 hPa Calm     92% 0 mm WeatherDisplay:10.37 W/m2 FEW
23:23 -21.5 °C -22.1 °C 35414.2 hPa Calm     92% 0 mm WeatherDisplay:10.37 W/m2 FEW
23:28 -21.5 °C -22.1 °C 35414.2 hPa Calm     92% 0 mm WeatherDisplay:10.37 W/m2 FEW
23:33 -21.4 °C -22.1 °C 35414.2 hPa Calm     92% 0 mm WeatherDisplay:10.37 W/m2 FEW
23:38 -21.4 °C -22.1 °C 35414.2 hPa Calm     92% 0 mm WeatherDisplay:10.37 W/m2 FEW
23:43 -21.4 °C -22.1 °C 35414.2 hPa Calm     92% 0 mm WeatherDisplay:10.37 W/m2 FEW
23:48 -21.4 °C -22 °C 35414.2 hPa Calm     92% 0 mm WeatherDisplay:10.37 W/m2 FEW
23:53 -21.3 °C -22 °C 35414.2 hPa Calm     92% 0 mm WeatherDisplay:10.37 W/m2 FEW
23:58 -21.3 °C -21.9 °C 35427.7 hPa Calm     93% 0 mm WeatherDisplay:10.37 W/m2 FEW
Tuulensuunkaari, Veikkola, Suomi
Compliments of Weather Underground - 2.75 mb